[Iaude] MPEC A47: 2024 AX [a=1.97,e=0.53,i=5.6,H=22.9]
    mpec at marsden.cfa.harvard.edu 
    mpec at marsden.cfa.harvard.edu
       
    Fri Jan  5 06:39:48 EST 2024
    
    
  
M.P.E.C. 2024-A47                               Issued 2024 January 5, 11:38 UT
     The Minor Planet Electronic Circulars contain information on unusual
         minor planets, routine data on comets and natural satellites,
         and occasional editorial announcements.  They are published
    on behalf of Division F of the International Astronomical Union by the
          Minor Planet Center, Smithsonian Astrophysical Observatory,
                          Cambridge, MA 02138, U.S.A.
			  
             Prepared using the Tamkin Foundation Computer Network
                              MPC at CFA.HARVARD.EDU
            URL https://www.minorplanetcenter.net/    ISSN 1523-6714
                                    2024 AX                                     
Observations:
     K24A00X* C2024 01 02.39969705 55 21.640+03 12 18.99         20.94wXEA047F51
     K24A00X  C2024 01 02.41241205 55 20.236+03 11 46.81         21.01wXEA047F51
     K24A00X  C2024 01 02.42508105 55 18.797+03 11 14.63         20.89wXEA047F51
     K24A00X  C2024 01 02.43780905 55 17.371+03 10 42.52         21.24wXEA047F51
     K24A00X  C2024 01 02.55085505 55 04.903+03 05 54.54         20.82GVEA047F52
     K24A00X  C2024 01 02.55149905 55 04.831+03 05 53.02         20.86GVEA047F52
     K24A00X KB2024 01 03.16781 05 54 06.27 +02 39 18.9          21.2 GXEA047H36
     K24A00X KB2024 01 03.17841 05 54 05.07 +02 38 51.6          20.8 GXEA047H36
     K24A00X KC2024 01 03.18005 05 54 05.51 +02 38 50.9          21.2 RVEA047691
     K24A00X KC2024 01 03.18468 05 54 04.97 +02 38 38.7          20.7 RVEA047691
     K24A00X KB2024 01 03.18902 05 54 03.88 +02 38 23.9          20.5 GXEA047H36
     K24A00X KC2024 01 03.18932 05 54 04.47 +02 38 26.7          21.0 RVEA047691
     K24A00X KC2024 01 03.19230505 54 03.27 +02 38 14.9          20.9 GVEA047H21
     K24A00X KC2024 01 03.19789705 54 02.64 +02 38 00.8          21.1 GVEA047H21
     K24A00X KC2024 01 03.20349005 54 01.99 +02 37 46.3          20.9 GVEA047H21
     K24A00X KC2024 01 03.20709005 54 02.416+02 37 40.26         20.59GVEA047I52
     K24A00X KC2024 01 03.20882605 54 02.203+02 37 35.90         21.10GVEA047I52
     K24A00X KC2024 01 03.21057205 54 02.045+02 37 31.12         21.01GVEA047I52
     K24A00X KC2024 01 03.21231105 54 01.829+02 37 26.76         21.07GVEA047I52
     K24A00X |C2024 01 05.19350005 50 35.610+01 09 22.20         21.0 GVEA047807
     K24A00X |C2024 01 05.19708005 50 35.180+01 09 12.10         20.7 GVEA047807
     K24A00X |C2024 01 05.20067005 50 34.720+01 09 02.20         20.7 GVEA047807
Observer details:
691 Steward Observatory, Kitt Peak-Spacewatch.  Observer M. J. Brucker.  0.9-m
    f/3 reflector + CCD.
807 Cerro Tololo Observatory, La Serena.  Observers T. Linder, R. Holmes.
    0.61-m f/11 Ritchey-Chretien + CCD.
F51 Pan-STARRS 1, Haleakala.  Observers J. Herman, T. Lowe, P. Minguez, A.
    Schultz, I. Smith.  Measurers K. Chambers, T. de Boer, J. Fairlamb, H.
    Gao, M. Huber, C.-C. Lin, E. Magnier, Y. Ramanjooloo, R. Wainscoat, R.
    Weryk.  1.8-m Ritchey-Chretien + CCD.
F52 Pan-STARRS 2, Haleakala.  Observers J. Herman, T. Lowe, P. Minguez, A.
    Schultz, I. Smith.  Measurers K. Chambers, T. de Boer, J. Fairlamb, H.
    Gao, M. Huber, C.-C. Lin, E. Magnier, Y. Ramanjooloo, R. Wainscoat, R.
    Weryk.  1.8-m Ritchey-Chretien + CCD.
H21 Astronomical Research Observatory, Westfield.  Observer R. Holmes.
    Measurers T. Linder, R. Holmes, L. Horn.  0.76-m f/3.0 astrograph + CCD.
H36 Sandlot Observatory, Scranton.  Observer G. Hug.  0.56-m f/4.8 reflector +
    CMO.
I52 Steward Observatory, Mt. Lemmon Station.  Observer R. A. Kowalski.
    Measurers E. C. Beshore, D. Fay, J. B. Fazekas, D. C. Fuls, A. R. Gibbs,
    A. D. Grauer, H. Groeller, J. K. Hogan, R. A. Kowalski, S. M. Larson, G.
    J. Leonard, D. Rankin, R. L. Seaman, F. C. Shelly, K. W. Wierzchos.  1.0-m
    prime focus + CCD.
Orbital elements:
2024 AX                                                  Earth MOID = 0.0374 AU
Epoch 2023 Sept. 13.0 TT = JDT 2460200.5                Veres                   
M 297.81713              (2000.0)            P               Q                  
n   0.35769162     Peri.  295.25574     -0.98175955     -0.17254691             
a   1.9654570      Node   234.90524     +0.18961114     -0.91947575             
e   0.5314759      Incl.    5.60041     -0.01399332     -0.35325897             
P   2.76           H   22.94          G   0.15           U   8                  
Residuals in seconds of arc
240102 F51  0.1-  0.1-    240103 691  0.3+  0.0     240103 I52  0.4-  0.0
240102 F51  0.3+  0.0     240103 691  0.1-  0.2-    240103 I52  0.2+  0.3-
240102 F51  0.1+  0.1-    240103 H36  0.2-  0.1-    240103 I52  0.1-  0.1-
240102 F51  0.2+  0.1+    240103 691  0.2+  0.1-    240105 807  0.2+  0.0
240102 F52  0.1-  0.0     240103 H21  0.1+  0.2-    240105 807  0.3+  0.1-
240102 F52  0.1-  0.1+    240103 H21  0.1+  0.3+    240105 807  0.2-  0.0
240103 H36  0.0   0.1-    240103 H21  0.2-  0.3+
240103 H36  0.3-  0.1+    240103 I52  0.1-  0.2-
Ephemeris:
2024 AX                  a,e,i = 1.97, 0.53, 6                   q = 0.9209
Date    TT    R. A. (2000) Decl.     Delta      r    Elong.  Phase     V
2023 12 06    06 20 37.6 +15 52 37   0.4503  1.4111   157.1    15.8    22.8
...
2023 12 21    06 11 37.7 +10 21 09   0.3193  1.2961   166.2    10.4    21.7
...
2023 12 29    06 02 02.7 +06 05 10   0.2632  1.2360   161.6    14.5    21.3
...
2024 01 04    05 52 41.1 +02 03 13   0.2272  1.1920   154.2    21.0    21.1
2024 01 05    05 50 56.8 +01 17 59   0.2216  1.1848   152.8    22.3    21.1
2024 01 06    05 49 09.5 +00 31 14   0.2162  1.1776   151.3    23.6    21.1
...
2024 01 12    05 37 22.3 -04 44 30   0.1864  1.1356   141.6    32.5    20.9
...
2024 01 20    05 18 38.2 -13 40 00   0.1531  1.0827   126.8    46.7    20.8
...
2024 02 04    04 21 26.6 -39 11 41   0.1100  0.9980    93.3    80.4    21.0
M. P. C. Staff               (C) Copyright 2024 MPC           M.P.E.C. 2024-A47
    
    
More information about the Iaude
mailing list